Starlink 32923

operational
NORAD ID: 63097 Int'l Des: 2025-037 Owner: SPXS Country: US Constellation: starlink
LEOCIRCULAR

关于 Starlink 32923

正在加载描述...

实时位置

正在加载3D地球...

即将过境

高度历史

Altitude vs Time

uPlot chart will show altitude changes over time

两行轨道根数

1 63097U 25037W 25259.23328650 .00002913 00000-0 25173-3 0 9990
2 63097 70.0014 74.1843 0002961 270.2281 89.8538 14.98338042 32475
Epoch: Sep 16, 2025 • Age: 9 hours

当前状态

高度 592.1 km
速度 7.56 km/s
星下点 -58.31°S, 177.64°E
发射日期 Feb 23, 2025
运行时间 0.5 years
类型 internet

技术详情

分类 Payload
质量 730.00 kg
干质量 700.00 kg
总质量 730.00 kg
长度 0.30 m
直径 4.10 m
跨度 29.00 m
形状 Box + pan
制造商 SPXS
平台类型 Starlink V2M
阶段状态 In Orbit
所有者/国家 SPXS/US

大型星座

Loading constellations...